{"data":{"norad_id":53002,"intl_designator":"2022-076S","name":"STARLINK-4121","alt_names":[],"object_type":"PAYLOAD","status":"ACTIVE","operator":null,"country":"US","launch_date":"2022-07-07","launch_site_code":"AFETR","launch_vehicle":null,"mission":null,"orbit_class":"UNKNOWN","rcs_meters":null,"size_class":null,"mass_kg":null,"dimensions":null,"purposes":["comms"],"wikipedia_slug":null,"has_3d_model":false,"image_url":null,"decayed_at":null,"tle_current":{"epoch":"2026-05-25T04:37:53.770080Z","epoch_age_seconds":61486,"freshness":"FRESH","line1":"1 53002U 22076S   26145.19298345  .00000607  00000+0  56250-4 0  9990","line2":"2 53002  53.2139 110.6832 0001532  84.6391 275.4776 15.08845462214398","mean_motion":15.08845462,"eccentricity":0.0001532,"inclination_deg":53.2139,"raan_deg":110.6832,"arg_perigee_deg":84.6391,"mean_anomaly_deg":275.4776,"bstar":5.625e-5,"rev_number":21439,"period_min":95.437209195119,"perigee_km":538.66687714767,"apogee_km":540.78651058347,"semimajor_km":6917.8636938656,"source":"CELESTRAK","updated_at":"2026-05-25T13:38:17.276526Z"}}}